NJ6E-6 Weather Reports


time (UTC)temp
F
wind
direction
speed
knots
gust
knots
rain 1hr
in
rain 24hr
in
rain mn
in
humidity
%
barometer
mb
20260506163746 58 180 0.9 3.5 0.00 0.00 0.00 1020.9
20260506162246 58 180 2.6 4.3 0.00 0.00 0.00 1020.9
20260506160747 57 180 0.9 3.5 0.00 0.00 0.00 1020.9
20260506155247 56 180 0.9 2.6 0.00 0.00 0.00 1020.9
20260506153746 56 180 0.0 0.9 0.00 0.00 0.00 1020.9
20260506142246 54 0 0.0 0.0 0.00 0.00 0.00 1020.6
20260506140746 53 0 0.0 0.0 0.00 0.00 0.00 1020.5
20260506135247 53 0 0.0 0.0 0.00 0.00 0.00 1020.4
20260506133747 53 0 0.0 0.0 0.00 0.00 0.00 1020.3
20260506132247 53 0 0.0 0.0 0.00 0.00 0.00 1020.2
20260506130747 53 0 0.0 0.0 0.00 0.00 0.00 1020.2
20260506125247 53 0 0.0 0.0 0.00 0.00 0.00 1020.1
20260506123747 53 0 0.0 0.0 0.00 0.00 0.00 1020.0
20260506122247 53 0 0.0 0.0 0.00 0.00 0.00 1020.0
20260506120747 53 0 0.0 0.0 0.00 0.00 0.00 1019.9
20260506115247 53 0 0.0 0.0 0.00 0.00 0.00 1019.9
20260506113747 53 0 0.0 0.0 0.00 0.00 0.00 1019.7
20260506112247 53 0 0.0 0.0 0.00 0.00 0.00 1019.6
20260506110747 53 0 0.0 0.0 0.00 0.00 0.00 1019.5
20260506105247 54 0 0.0 0.0 0.00 0.00 0.00 1019.4
20260506102249 54 0 0.0 0.0 0.00 0.00 0.00 1019.2
20260506093749 53 0 0.0 0.0 0.00 0.00 0.00 1019.2
20260506090749 53 0 0.0 0.0 0.00 0.00 0.00 1019.4
20260506085248 53 0 0.0 0.0 0.00 0.00 0.00 1019.3
20260506084304 53 0 0.0 0.0 0.00 0.00 0.00 1019.3
20260506083748 53 0 0.0 0.0 0.00 0.00 0.00 1019.3
20260506082248 53 180 0.9 3.5 0.00 0.00 0.00 1019.2
20260506080748 53 0 0.0 0.0 0.00 0.00 0.00 1019.2
20260506072248 53 180 0.9 5.2 0.00 0.00 0.00 1018.8
20260506070748 55 0 0.0 0.0 0.00 0.00 0.00 1018.7
20260506062248 55 180 0.9 2.6 0.00 0.00 0.00 1018.4
20260506060748 55 180 0.9 3.5 0.00 0.00 0.00 1018.3
20260506050750 55 180 1.7 5.2 0.00 0.00 0.00 1017.9
20260506043749 56 180 1.7 4.3 0.00 0.00 0.00 1017.6
20260506042249 56 180 2.6 4.3 0.00 0.00 0.00 1017.4
20260506040749 56 180 2.6 6.1 0.00 0.00 0.00 1017.2
20260506035249 56 180 1.7 5.2 0.00 0.00 0.00 1017.1
20260506033750 56 180 1.7 5.2 0.00 0.00 0.00 1016.8
20260506032252 56 180 3.5 7.0 0.00 0.00 0.00 1016.6
20260506025250 56 180 2.6 7.0 0.00 0.00 0.00 1016.2
20260506023750 57 180 0.9 5.2 0.00 0.00 0.00 1016.1
20260506022249 57 180 2.6 7.0 0.00 0.00 0.00 1016.0
20260506020752 58 180 3.5 8.7 0.00 0.00 0.00 1015.8
20260506015249 58 180 3.5 8.7 0.00 0.00 0.00 1015.7
20260506013749 59 180 4.3 8.7 0.00 0.00 0.00 1015.6
20260506012249 59 180 5.2 9.6 0.00 0.00 0.00 1015.4
20260506010749 58 180 3.5 8.7 0.00 0.00 0.00 1015.3
20260506005249 60 180 2.6 7.0 0.00 0.00 0.00 1015.3
20260506002251 60 180 3.5 8.7 0.00 0.00 0.00 1015.1
20260506000750 60 180 3.5 7.8 0.00 0.00 0.00 1015.1
20260505235250 60 180 2.6 7.0 0.00 0.00 0.00 1015.1
20260505233750 61 180 2.6 5.2 0.00 0.00 0.00 1015.1
20260505230750 62 180 4.3 7.8 0.00 0.00 0.00 1015.0
20260505225250 62 180 5.2 9.6 0.00 0.00 0.00 1015.0
20260505213752 63 180 1.7 6.1 0.00 0.00 0.00 1015.4
20260505212251 63 180 3.5 8.7 0.00 0.00 0.00 1015.5
20260505205305 63 180 3.5 8.7 0.00 0.00 0.00 1015.6
20260505202250 62 180 2.6 5.2 0.00 0.00 0.00 1015.8
20260505200751 61 180 3.5 6.1 0.00 0.00 0.00 1015.8
20260505195252 60 180 4.3 7.0 0.00 0.00 0.00 1015.9
20260505192252 61 180 1.7 5.2 0.00 0.00 0.00 1015.9
20260505190752 60 180 1.7 5.2 0.00 0.00 0.00 1015.9
20260505185251 60 180 2.6 5.2 0.00 0.00 0.00 1015.9
20260505182251 59 180 0.9 3.5 0.00 0.00 0.00 1016.0
20260505175252 58 180 2.6 6.1 0.00 0.00 0.00 1015.9
20260505172252 56 180 1.7 4.3 0.00 0.00 0.00 1015.7